Theta_e
338 338 337 336 336 334 334 334 334 334 333 332 330 326 327 330 332 333 333 333 332 332 331 327 324 325 326 327 327 327 327 329 329 329 329 328 328 324 322 323 323 325 328 327 322 319 319 320 321 323 322 321 321 320 320 321 321 319 319 320 320 321 321 321 321 320 319 319 320 320 321 321 321 320 320 320 320 321 320 320 320 320 320 320 320
337 337 337 336 336 335 334 334 333 333 333 333 332 329 327 329 332 333 333 333 332 332 330 327 325 325 327 328 328 329 329 330 330 329 329 328 328 325 324 326 327 327 328 329 326 321 319 320 321 322 319 315 316 318 319 321 321 320 319 319 319 320 320 320 320 320 320 319 319 320 320 320 320 320 320 320 320 320 320 320 320 320 319 319 319
336 336 336 337 337 336 335 334 332 332 333 332 332 330 328 329 332 333 333 333 332 331 329 327 325 326 328 329 330 331 331 331 330 330 329 328 328 327 327 327 327 328 329 330 330 328 325 322 319 318 315 314 317 319 319 320 318 319 320 319 319 319 319 320 320 320 320 320 319 319 319 319 319 319 320 320 320 319 320 320 320 320 320 320 319
336 335 335 336 336 336 334 333 332 331 332 333 331 329 329 329 331 333 333 333 332 331 329 327 326 327 329 331 331 331 331 331 330 330 329 328 327 327 327 328 328 329 330 330 331 331 329 327 324 320 316 317 321 323 322 322 320 317 316 317 319 318 316 318 319 319 319 319 319 319 318 318 318 318 318 319 319 319 319 319 320 320 321 321 320
335 335 335 334 334 335 334 333 332 330 330 333 332 329 330 330 330 333 334 333 332 331 329 327 327 327 330 331 331 331 331 331 330 329 329 328 327 327 328 329 328 329 329 330 330 330 330 330 329 327 323 321 323 326 326 326 325 320 314 313 315 316 315 315 315 316 317 317 318 319 318 317 316 316 317 318 318 319 319 319 319 319 320 320 320
336 336 336 334 333 333 334 333 332 330 328 331 333 330 330 330 331 333 335 333 332 331 329 328 328 328 330 332 332 331 331 331 330 330 329 328 327 327 328 329 328 329 329 329 329 329 329 330 331 331 329 327 326 326 327 327 326 324 318 313 313 316 318 316 312 312 313 314 317 319 319 318 317 317 317 317 318 318 318 318 319 319 319 319 319
336 337 336 336 334 334 334 333 332 330 328 329 332 332 329 330 331 333 334 334 333 332 331 330 330 330 331 332 332 332 332 331 330 330 329 328 327 328 328 328 328 329 330 329 329 329 329 330 330 330 330 330 328 327 327 328 328 326 322 318 315 316 318 317 315 314 315 317 319 320 321 320 320 320 319 319 318 319 318 318 318 318 318 318 318
337 337 337 336 335 335 334 333 332 330 329 329 331 332 330 330 331 332 333 333 333 332 332 332 332 332 331 332 332 332 332 331 330 330 329 328 328 328 327 327 328 328 329 329 329 329 329 329 329 330 329 330 329 329 329 329 328 327 325 321 320 320 320 319 319 320 321 322 322 322 322 322 322 321 321 320 319 320 319 318 318 318 318 318 319
336 336 337 335 335 336 335 333 332 330 329 329 331 332 330 330 330 331 331 332 333 332 332 332 332 332 332 332 332 331 331 331 331 329 328 328 328 327 327 327 328 328 328 328 328 329 328 327 327 328 328 329 329 329 330 330 329 329 328 324 323 323 323 323 323 323 323 323 323 323 323 323 322 322 321 321 320 320 318 317 318 318 319 320 320
335 336 336 335 335 336 335 334 331 330 330 330 330 331 331 330 330 330 330 331 332 332 332 332 332 332 332 332 331 331 331 331 330 328 327 328 328 328 328 328 329 329 329 329 329 328 327 325 326 327 327 327 329 330 329 330 329 329 329 328 326 324 324 325 325 324 324 324 324 324 324 324 324 323 322 322 321 320 319 318 319 320 320 321 321
334 335 336 335 336 335 335 334 331 331 331 331 331 332 331 331 331 330 330 330 331 331 332 332 331 331 331 331 331 331 331 330 329 328 326 328 329 328 329 328 329 329 329 328 327 324 322 321 323 325 326 324 327 330 329 330 330 329 330 329 328 326 325 325 326 325 325 325 325 324 325 324 325 324 323 323 321 320 320 320 320 321 321 321 321
334 334 335 335 335 335 335 335 332 331 332 332 331 332 331 332 332 331 330 330 331 331 331 331 331 331 331 331 331 331 331 330 329 327 325 327 329 328 328 329 329 328 328 327 324 323 323 324 323 325 325 323 325 328 329 329 329 330 330 329 329 328 327 327 327 327 326 326 326 325 325 325 325 325 324 323 321 320 321 321 321 321 321 321 319
335 335 335 335 335 334 334 335 333 331 332 332 331 331 331 331 332 331 331 331 330 330 331 331 331 330 330 330 329 329 330 330 330 326 323 326 328 328 328 328 328 328 327 326 325 326 327 327 326 326 327 326 326 328 328 328 329 329 330 329 329 329 328 328 327 327 326 326 326 325 325 325 325 325 325 324 322 321 322 322 322 322 322 320 318
334 334 334 334 334 333 333 334 333 331 332 333 332 332 331 330 331 331 330 330 330 330 331 331 330 330 330 330 328 327 328 329 329 326 323 326 327 327 328 328 329 328 327 326 326 328 327 327 327 327 328 328 328 329 328 329 328 328 329 328 329 328 328 328 327 327 327 326 326 325 325 325 325 325 324 324 323 321 322 322 322 321 321 319 319
331 331 331 332 333 333 332 333 333 332 332 332 332 332 331 330 330 331 330 329 328 328 330 331 331 331 330 330 329 328 327 327 328 326 325 326 327 328 328 328 329 328 327 326 327 328 327 327 327 327 328 328 329 329 329 328 327 326 327 328 328 328 328 328 327 327 327 326 326 325 324 322 322 323 324 323 323 321 321 321 321 321 320 318 318
331 330 331 331 332 332 332 333 332 331 332 331 331 331 332 330 330 330 330 329 327 327 329 330 331 331 330 330 330 329 330 329 328 327 325 326 328 329 329 329 329 328 327 327 327 328 327 327 327 327 328 327 328 328 327 326 325 325 326 327 328 328 328 328 327 327 326 326 325 323 319 313 311 317 322 323 322 321 321 321 320 319 318 316 313
331 331 331 331 331 332 332 332 331 331 331 330 330 331 331 330 329 330 330 329 328 328 329 329 330 331 330 330 330 330 330 329 328 328 326 327 328 328 329 329 328 328 327 328 328 328 327 326 327 327 327 327 327 326 325 324 324 324 325 326 327 328 328 327 327 327 326 324 320 315 309 305 306 313 320 322 322 322 321 320 319 316 314 312 306
332 331 331 331 331 330 330 330 330 330 330 329 328 329 330 330 330 330 329 327 328 328 329 329 329 329 329 329 330 330 330 329 329 329 328 327 327 327 328 328 328 328 328 328 328 327 326 326 326 327 327 326 326 325 324 322 321 322 324 325 326 327 327 326 326 325 323 318 312 307 303 307 313 316 319 321 322 322 320 318 315 311 308 305 300
332 331 332 331 331 330 330 330 330 329 329 328 328 329 330 330 330 330 329 327 328 328 328 329 329 329 328 328 328 328 329 329 329 329 329 328 327 327 328 328 328 328 328 328 328 327 326 326 326 326 326 326 325 324 324 322 319 319 322 324 325 325 326 325 324 321 316 310 306 303 304 311 318 320 319 321 320 320 318 315 310 305 302 299 297
331 332 332 331 330 330 329 329 329 329 329 329 328 329 330 329 329 330 330 329 329 329 328 328 329 329 328 328 328 327 329 330 330 330 330 329 327 327 327 327 328 328 328 327 328 327 326 325 326 326 325 326 325 324 324 322 319 319 320 321 321 322 322 320 318 315 309 305 303 302 303 309 317 318 316 316 316 315 313 308 303 300 298 297 296
331 332 331 330 330 329 329 329 329 329 329 329 328 328 328 328 329 330 330 329 329 329 329 328 329 330 329 329 329 329 330 330 330 330 330 328 327 327 327 327 327 328 328 328 328 327 326 325 326 326 325 325 325 324 323 321 319 318 317 317 318 318 317 316 312 308 305 303 303 302 301 303 307 308 306 306 307 307 304 301 299 297 297 297 296
332 331 330 330 330 329 329 330 329 329 329 329 328 328 329 330 330 330 330 330 329 329 329 329 329 330 330 329 329 330 330 329 329 329 330 330 328 327 327 327 327 328 328 328 327 327 326 326 325 325 325 325 325 324 323 321 318 315 312 313 314 315 315 313 308 305 303 303 301 300 300 300 300 300 299 300 301 300 299 298 297 297 297 297 297
331 330 330 329 329 329 329 330 329 330 330 330 330 329 329 330 331 331 330 329 329 329 329 329 329 329 330 329 330 330 330 330 330 329 330 330 329 328 328 328 328 328 327 327 327 326 326 326 325 325 325 325 324 323 322 319 314 310 309 310 310 311 312 309 305 303 303 302 300 299 299 299 299 298 298 298 298 298 298 298 298 297 297 298 298
331 331 329 329 329 329 330 330 330 330 331 331 331 330 329 330 331 331 330 328 329 329 328 329 329 329 329 330 330 331 330 330 330 330 331 330 329 328 328 328 328 328 327 326 327 326 326 325 325 325 324 324 324 322 321 318 311 306 308 308 307 307 307 305 303 303 302 300 299 299 299 298 299 299 298 298 298 299 299 299 298 298 298 299 299
332 331 329 329 329 329 330 331 331 331 331 330 331 331 329 329 331 332 331 329 329 329 329 329 329 328 329 330 330 330 330 330 330 330 331 330 329 329 329 329 329 328 327 326 326 326 325 325 324 324 324 323 324 321 319 317 310 305 307 308 305 305 304 304 303 302 301 300 299 299 299 299 299 299 299 299 300 301 301 300 300 301 302 303 303
331 331 330 329 329 329 330 331 330 330 330 330 331 330 328 328 331 332 331 331 330 330 329 329 329 329 329 330 330 330 330 329 328 329 330 329 329 330 328 328 328 327 326 325 325 325 325 324 323 323 323 323 323 321 319 315 307 303 306 307 305 304 304 303 302 301 300 299 299 299 299 299 300 300 300 301 302 302 302 302 304 305 306 306 307
331 331 331 330 330 330 330 330 330 329 330 329 330 330 329 329 331 331 331 331 330 330 330 330 329 329 329 330 330 330 330 329 328 328 329 329 329 329 328 327 326 327 326 325 324 325 325 324 323 324 324 323 322 320 319 314 305 302 306 307 305 304 303 302 301 300 300 299 300 300 300 301 301 302 303 303 303 304 304 306 307 307 307 307 307
330 330 330 330 330 330 330 330 330 330 330 329 329 330 330 330 331 331 331 330 330 330 330 330 330 329 329 329 329 329 330 329 328 328 328 329 329 328 328 327 327 326 325 324 325 325 325 324 323 323 323 322 321 318 316 314 307 302 304 307 305 303 302 302 301 299 300 300 301 302 302 303 303 303 305 305 305 307 308 308 308 308 307 307 307
330 330 330 329 329 329 329 330 330 330 331 330 330 330 331 330 330 330 330 330 330 330 330 330 330 329 329 329 328 328 329 329 328 328 328 328 328 328 328 328 328 327 325 324 325 326 326 325 323 323 322 322 321 317 315 314 308 302 304 306 304 302 301 301 300 299 300 301 302 303 304 304 305 305 306 307 308 309 309 309 309 309 309 308 308
330 329 329 329 328 329 329 329 330 331 331 330 330 331 331 330 329 330 330 330 330 330 330 330 330 329 329 329 329 329 330 329 329 329 328 327 328 328 328 328 328 328 326 325 326 326 326 325 323 323 322 321 321 318 316 314 307 302 304 305 303 301 301 300 300 300 301 302 303 304 305 306 306 307 308 308 309 309 309 310 309 309 309 308 308
329 329 329 329 329 329 329 330 330 331 331 330 330 330 330 329 328 329 330 330 329 329 329 329 330 329 329 329 329 329 330 330 329 329 328 326 327 327 327 328 328 327 328 326 325 326 326 324 323 323 321 321 320 319 318 314 307 302 303 305 303 301 300 300 300 300 302 303 303 304 306 306 307 308 308 309 309 310 309 309 309 309 309 308 308
329 329 329 329 329 329 330 330 331 331 330 330 330 330 329 328 328 330 330 329 329 329 329 329 329 329 329 329 329 329 329 329 330 329 327 326 327 327 327 328 327 327 328 326 325 326 325 324 323 322 321 321 321 320 319 316 309 303 303 305 303 300 300 300 300 301 303 303 304 305 306 307 308 308 309 309 309 310 309 309 309 309 309 309 308
329 329 329 329 329 330 330 331 331 331 330 330 331 330 329 329 328 329 329 329 329 329 329 329 329 329 329 330 330 329 329 329 330 328 327 327 326 326 326 326 326 326 326 326 324 324 323 323 323 321 320 321 321 321 321 318 312 306 303 304 304 300 299 301 301 301 303 304 305 306 307 308 308 308 309 309 310 310 309 309 309 309 309 309 308
329 329 329 329 330 330 330 331 331 330 330 330 331 330 329 329 329 329 329 329 329 329 329 329 329 329 329 329 330 329 329 329 329 328 327 327 325 325 325 325 325 325 324 324 324 323 322 321 321 321 320 321 321 320 320 319 315 309 304 304 304 301 299 300 301 301 303 304 306 306 307 308 308 309 309 309 309 309 309 309 309 309 308 308 308
329 329 329 330 330 330 330 330 331 330 330 330 330 330 329 329 329 329 329 329 329 329 329 329 329 329 329 329 329 329 328 329 329 328 328 327 325 325 324 323 323 323 323 323 323 322 322 320 319 320 320 320 320 319 319 318 316 311 307 305 304 303 300 299 300 301 302 304 305 306 307 308 308 308 309 309 309 309 309 309 309 309 308 308 308
329 329 329 330 330 330 330 330 330 330 330 330 330 331 330 329 329 329 328 329 329 329 329 329 329 329 328 329 329 329 328 328 329 328 328 327 326 324 324 323 322 322 321 321 321 321 321 319 318 318 318 319 319 318 318 317 316 314 310 306 305 304 303 300 300 301 301 303 304 305 306 306 307 308 308 308 308 308 309 308 309 308 308 308 308
329 329 329 330 330 330 330 330 330 330 330 330 330 331 330 330 329 328 328 329 329 329 329 329 329 329 329 329 329 329 329 329 329 329 328 328 326 325 324 323 322 321 320 320 320 320 320 319 318 315 315 317 317 317 317 317 315 314 312 308 305 305 304 302 301 301 301 302 303 304 305 306 306 306 307 307 307 308 308 308 308 308 308 308 307
328 328 328 329 329 330 330 331 331 331 331 330 330 330 330 330 329 328 329 329 329 329 329 328 328 328 329 329 329 329 329 329 329 329 329 328 327 326 326 324 323 321 320 319 319 318 318 319 318 315 313 314 315 316 316 316 315 314 313 310 307 305 305 304 303 302 302 302 302 302 303 304 305 305 305 306 306 306 306 306 307 307 307 307 307
327 327 327 328 329 329 330 331 331 331 330 330 330 329 329 330 330 329 328 328 328 328 328 328 328 328 328 328 329 329 328 329 329 329 329 328 327 327 327 326 324 322 321 319 317 317 317 318 317 315 314 313 313 314 314 314 313 313 313 312 309 307 306 306 305 305 304 303 303 303 303 303 304 304 305 305 306 306 307 307 307 307 307 307 307
327 326 326 327 327 328 330 331 331 331 330 329 329 329 328 329 329 329 328 328 327 327 327 327 327 327 328 327 328 328 328 329 329 329 329 328 328 328 327 327 326 324 322 320 317 316 316 316 316 316 315 314 313 312 311 311 312 312 312 312 311 311 309 308 307 306 306 305 304 304 305 305 305 305 306 306 307 307 307 307 307 307 307 307 308
326 326 325 325 326 327 329 330 330 330 330 329 329 329 328 328 328 328 327 327 327 326 326 326 326 327 327 327 327 327 328 328 328 329 329 327 328 328 328 327 326 326 325 321 318 317 317 316 316 316 315 314 314 312 311 310 311 312 312 310 310 312 312 310 309 307 307 306 306 306 306 306 306 306 306 307 307 307 307 307 308 309 310 312 313
325 325 324 324 325 326 328 329 330 330 329 329 328 328 328 328 327 328 327 327 327 326 326 326 326 326 327 327 327 327 327 327 328 329 329 327 327 328 328 327 326 327 326 322 318 318 318 317 316 316 316 316 316 314 313 312 312 312 312 310 310 312 311 310 311 310 308 307 307 308 308 308 308 308 308 308 309 310 311 313 313 314 315 315 315
325 324 324 323 324 325 327 328 329 328 328 328 327 328 328 328 327 328 328 327 327 327 327 326 326 326 327 327 327 327 327 327 327 328 328 328 328 328 328 327 327 327 326 323 321 321 321 320 319 318 317 319 318 316 314 313 312 311 311 311 310 312 312 311 313 313 310 309 309 310 311 311 310 310 312 313 313 315 315 315 315 315 315 315 315
323 324 323 322 322 324 325 326 327 327 327 327 327 327 327 327 327 327 327 327 327 327 327 327 326 326 326 327 326 326 326 326 327 327 327 328 328 328 328 328 327 326 325 324 323 323 322 322 322 320 320 321 321 317 315 313 312 310 310 310 310 311 312 312 313 314 312 309 309 311 313 313 312 314 315 315 315 316 315 315 314 313 313 312 312
320 321 321 321 321 322 323 324 325 325 325 326 326 327 326 326 326 327 326 327 327 327 327 327 327 326 326 326 325 325 326 326 327 327 327 327 327 328 328 327 326 326 325 323 322 322 321 321 322 321 320 320 319 317 315 312 311 310 310 310 310 311 312 313 314 314 310 308 310 314 316 316 315 316 317 316 315 314 313 312 311 309 308 307 307
314 314 315 316 317 318 320 321 323 323 324 325 326 326 326 326 326 326 325 325 325 326 327 327 326 326 326 325 325 325 325 326 326 326 326 326 326 326 324 323 323 322 322 320 319 319 319 320 321 320 320 318 316 315 313 310 310 311 312 312 312 312 313 313 313 312 311 311 314 316 319 319 316 314 316 316 314 312 311 309 307 305 305 305 306
308 308 308 310 311 313 315 316 319 320 321 322 324 325 325 325 326 326 324 323 323 324 325 326 326 326 326 326 326 326 326 326 326 326 325 324 321 319 318 316 316 316 316 317 318 317 316 316 317 317 316 315 312 311 310 308 309 312 313 313 313 313 313 313 313 313 312 312 313 315 317 317 314 313 314 313 311 309 308 307 305 303 304 306 309
305 305 306 306 307 308 310 311 313 316 318 320 321 323 324 325 325 324 323 322 322 323 324 325 326 326 326 325 326 326 327 327 326 324 323 320 317 314 313 311 310 311 311 311 314 314 312 312 313 312 312 312 311 312 312 311 312 313 313 313 312 313 315 315 314 313 311 310 309 311 313 313 312 311 310 310 308 306 305 306 305 303 305 309 308
304 304 304 303 304 305 307 308 310 311 314 317 319 320 321 323 323 322 321 321 321 322 323 324 325 325 325 325 325 325 325 326 323 320 318 317 314 311 310 308 307 307 306 306 308 309 308 308 308 307 308 309 310 311 311 311 312 312 313 313 312 312 315 316 315 312 310 309 307 306 308 310 309 308 307 307 307 305 304 306 307 306 308 307 303
302 303 303 303 303 303 303 304 306 308 310 313 316 318 318 320 321 320 320 320 320 320 320 321 322 322 323 324 323 322 323 322 320 316 315 314 312 310 309 308 307 305 303 304 306 306 306 306 307 307 307 306 307 308 307 307 308 309 311 312 310 310 311 312 312 310 309 309 306 304 305 307 307 306 306 305 305 305 306 308 309 308 306 304 301
301 301 302 302 302 302 302 302 302 304 305 307 311 315 316 317 318 318 319 319 318 317 316 316 317 317 318 319 319 319 319 318 315 313 312 312 312 311 312 311 308 304 303 305 305 305 305 306 308 309 307 306 307 308 307 306 306 307 308 308 306 307 307 308 309 308 308 310 306 302 304 305 304 305 305 304 304 305 307 307 307 305 304 303 304
Wind_Speed
12 13 12 11 10 10 10 9 7 7 8 7 10 16 17 16 15 14 13 13 13 13 13 13 13 12 11 11 10 10 9 9 8 7 7 7 7 8 10 11 11 10 7 6 7 9 8 9 9 8 8 9 9 8 8 9 8 8 8 9 9 8 9 10 10 11 11 12 13 13 13 14 14 14 14 14 15 15 15 16 17 17 16 16 17
13 14 13 12 10 9 9 9 8 7 8 8 8 13 17 16 14 13 12 13 13 14 14 14 13 12 11 11 10 8 7 7 7 7 7 7 8 9 12 13 10 9 7 5 8 10 9 8 8 8 7 8 9 9 9 9 8 8 7 8 9 8 9 10 10 11 11 12 13 13 13 14 14 14 14 14 14 14 15 16 16 16 16 17 17
13 13 13 12 10 9 9 8 8 8 9 9 8 12 16 16 14 13 12 12 13 14 14 15 15 13 11 10 8 7 6 6 7 7 7 8 8 9 11 11 9 9 8 6 7 8 8 8 7 7 7 8 9 9 9 9 8 8 7 7 8 8 8 10 10 10 11 11 12 12 13 13 13 13 13 14 14 14 14 15 15 15 15 15 16
13 12 12 11 10 10 10 9 9 9 10 10 10 11 14 15 14 13 12 12 13 14 14 15 15 13 11 9 7 7 6 6 6 6 7 7 8 9 10 9 9 10 8 7 6 6 6 6 7 7 7 8 9 8 9 9 9 8 8 8 8 8 8 9 9 10 11 11 11 12 12 12 12 12 13 14 13 13 14 14 14 14 14 14 15
13 13 11 11 10 11 11 10 9 10 10 11 11 11 13 15 15 13 12 12 13 14 14 14 14 14 12 8 6 7 6 6 6 6 6 7 8 10 10 8 10 10 8 6 4 3 2 3 6 7 7 7 7 7 7 8 8 7 7 8 8 8 9 10 10 10 10 11 11 11 11 12 13 13 14 14 13 13 13 13 13 13 12 13 15
13 13 12 12 12 12 12 10 10 10 11 12 12 12 13 14 14 12 12 13 13 14 15 14 14 14 11 7 7 7 6 6 5 5 6 6 8 10 10 8 9 9 7 6 4 2 1 0 3 5 6 7 7 6 6 6 6 7 7 8 9 9 9 9 11 11 12 12 12 12 13 14 15 15 15 14 14 13 12 12 11 11 12 13 14
13 13 13 13 13 12 12 11 10 10 12 14 13 13 14 14 14 12 11 12 12 13 13 12 11 11 10 8 7 7 6 6 6 5 5 6 8 9 9 8 8 8 6 5 4 3 2 0 2 2 3 5 7 7 6 5 5 6 7 8 9 10 10 10 12 13 14 15 14 14 14 15 15 15 15 14 12 11 11 10 11 13 14 14 13
15 16 15 15 14 13 12 12 11 10 12 14 15 14 14 14 14 13 12 11 11 13 12 9 8 9 9 8 8 8 7 7 6 6 6 7 8 8 9 8 7 6 5 5 3 2 2 1 2 2 2 3 6 8 7 6 5 6 7 8 9 10 11 12 14 15 15 15 15 14 13 14 14 14 13 12 11 10 10 10 12 15 16 14 13
18 18 17 17 15 15 16 14 13 13 13 15 15 15 15 15 15 14 14 12 11 13 12 9 7 7 8 8 9 10 9 8 8 7 7 8 8 9 9 7 6 6 5 4 3 2 1 1 1 2 2 2 4 6 7 8 7 6 7 7 9 9 9 11 12 12 12 12 12 12 11 11 12 12 11 11 11 11 11 13 16 16 14 13 12
19 19 18 18 17 17 18 17 16 15 16 16 16 15 15 15 15 15 14 13 11 12 12 10 8 7 8 9 10 11 10 9 9 8 7 8 8 8 8 7 6 5 4 3 3 2 1 1 1 1 2 2 3 4 5 7 8 7 7 6 7 8 7 9 9 9 9 9 10 9 8 9 9 10 10 11 13 13 14 17 18 15 12 12 13
19 19 19 20 19 19 18 18 19 18 18 18 17 17 16 16 16 15 15 14 13 13 12 10 8 7 8 9 10 11 12 11 10 9 8 8 8 8 7 7 6 4 4 3 2 2 1 2 2 2 2 2 2 3 4 5 7 8 7 7 7 7 7 7 8 9 8 8 8 7 7 6 6 8 9 10 12 13 15 16 14 11 12 13 13
19 19 20 20 19 19 19 18 21 21 19 19 19 19 19 17 15 14 14 13 12 13 13 10 9 8 8 9 10 10 11 11 11 11 10 10 8 8 8 7 6 5 4 3 2 1 1 1 2 2 2 2 2 3 4 4 6 7 7 7 7 8 8 8 8 8 7 6 6 5 5 5 5 6 8 9 10 12 13 12 10 10 12 12 13
18 18 19 21 19 19 20 19 21 23 21 19 20 20 20 19 16 15 14 13 11 12 13 11 10 9 8 8 8 7 8 11 13 13 12 12 10 8 8 7 6 6 4 2 2 2 1 1 1 2 3 3 3 3 4 4 5 5 5 6 7 8 8 9 8 8 7 5 4 4 5 6 6 6 7 8 9 10 10 10 10 11 11 11 13
17 18 19 21 19 17 19 21 23 26 22 20 20 20 19 19 19 18 15 15 12 11 14 13 11 10 9 7 5 4 5 10 14 14 13 13 12 9 9 8 7 6 5 4 3 3 2 2 2 3 4 4 4 4 5 5 4 4 3 3 6 7 8 8 8 8 6 5 5 6 7 7 7 7 7 8 9 9 9 10 10 11 10 10 11
16 17 20 20 18 17 20 22 25 27 24 21 20 19 19 19 20 19 15 14 12 12 15 13 11 12 10 6 4 4 3 7 12 13 14 14 12 11 9 9 9 7 5 5 4 3 3 2 3 4 5 5 6 6 6 5 5 5 4 3 4 6 8 8 9 8 7 7 7 7 7 7 7 8 8 8 8 8 9 9 9 8 8 8 9
13 13 18 19 18 19 21 22 24 26 26 24 20 18 19 19 19 19 17 14 12 14 18 15 12 13 8 4 4 5 3 5 8 11 16 14 11 12 11 10 9 8 7 7 5 4 3 3 4 5 6 6 7 7 7 7 6 6 5 5 5 7 9 9 9 9 9 8 7 6 5 5 6 8 10 9 8 8 8 8 6 5 5 6 7
11 10 15 17 17 19 22 22 22 23 24 24 21 18 19 18 17 18 18 15 14 15 18 18 16 14 9 5 4 3 3 8 8 7 14 15 13 13 13 11 10 9 8 8 6 4 4 4 5 6 7 7 7 7 7 7 7 7 6 6 7 8 10 10 10 10 10 8 7 6 5 5 6 9 12 11 9 8 8 7 4 4 4 5 6
11 10 12 15 16 17 18 19 19 20 22 22 21 19 19 18 18 18 17 18 18 16 17 18 16 16 14 9 6 3 4 10 8 4 8 11 12 12 12 12 11 10 9 8 7 5 5 5 5 6 7 7 7 7 7 7 7 7 6 7 9 11 12 12 11 11 9 8 7 6 5 8 10 12 13 12 10 8 7 5 3 4 5 5 6
12 12 12 14 16 16 14 15 16 18 19 18 18 19 18 19 18 18 18 20 20 18 18 18 15 16 16 13 8 5 8 11 8 5 6 7 9 10 11 11 12 11 10 9 8 7 6 6 6 6 7 6 6 6 6 6 6 6 7 8 10 11 12 12 11 10 9 7 7 6 7 10 13 13 13 12 10 8 6 4 4 5 6 6 6
12 11 11 12 15 14 11 13 16 17 17 15 16 17 18 18 16 16 19 21 21 19 19 20 18 16 17 14 8 6 10 11 9 8 7 6 7 8 9 9 10 12 11 10 9 7 6 6 7 7 7 6 5 5 6 5 5 6 6 6 7 8 9 10 10 9 8 7 7 7 8 10 12 12 12 11 10 8 6 5 5 6 7 7 8
11 10 9 9 13 12 10 12 14 16 17 15 16 17 17 17 16 17 20 22 22 19 17 19 20 18 18 16 9 7 9 9 8 8 6 7 7 7 9 8 8 11 11 10 10 8 7 7 7 7 6 6 5 4 5 4 5 5 5 5 5 6 8 8 8 8 8 8 7 7 8 9 10 11 11 11 10 8 7 6 7 7 8 9 10
11 8 8 10 12 12 12 13 14 15 16 16 17 18 18 17 17 19 22 21 20 17 15 18 19 18 18 18 13 10 10 8 9 9 6 7 7 9 12 10 9 11 11 11 10 9 9 8 8 7 7 6 5 5 5 4 4 5 5 5 5 6 7 7 7 7 8 8 8 8 9 9 9 10 10 10 10 9 8 8 8 9 10 10 11
13 9 11 13 13 14 15 14 14 15 15 16 17 17 18 18 17 19 21 20 19 17 16 18 19 17 17 18 16 14 12 11 11 12 9 7 7 8 12 12 11 11 12 10 10 9 9 9 8 7 7 7 6 6 5 5 4 5 5 5 5 6 7 7 7 7 7 8 8 9 9 9 9 10 10 10 9 9 9 9 9 10 10 11 12
13 11 14 14 12 15 16 14 15 17 16 15 14 14 17 17 16 17 17 18 19 18 17 18 18 18 18 17 17 15 14 11 11 12 10 9 8 9 11 12 10 10 11 9 8 8 9 9 8 8 8 7 7 7 6 6 5 5 6 6 5 6 7 7 6 7 7 8 9 9 9 9 9 9 10 10 10 10 10 10 9 10 10 11 11
13 13 16 14 12 15 16 15 15 15 15 15 16 16 18 17 16 16 15 15 17 17 17 17 17 19 19 16 16 16 14 12 11 10 9 9 9 9 11 12 10 10 11 9 8 7 9 10 9 8 9 8 8 8 7 7 7 7 7 7 6 6 7 7 6 7 8 9 9 9 9 9 9 9 9 10 10 10 9 9 9 10 10 10 10
12 15 16 13 13 15 17 16 15 14 15 18 19 18 17 17 16 16 14 13 14 15 15 15 17 19 17 14 15 18 18 17 14 11 10 10 10 10 11 9 9 11 11 9 9 9 9 11 10 9 10 10 9 8 8 7 7 9 9 8 7 7 6 7 7 8 9 9 9 10 10 10 9 9 10 10 10 10 9 9 9 9 9 8 8
10 13 15 14 14 16 17 17 15 14 17 18 17 16 15 15 14 14 14 13 13 15 14 14 17 18 18 17 18 18 18 20 17 12 11 11 10 13 14 10 8 10 10 10 10 11 10 11 12 11 11 11 9 8 9 8 8 9 10 8 8 8 7 8 9 9 10 10 10 10 10 10 10 10 10 11 10 10 9 9 8 8 7 6 6
9 13 16 16 16 16 16 16 15 15 17 15 14 15 15 13 11 12 13 13 14 16 15 14 16 17 18 18 17 15 15 19 19 15 13 12 11 13 16 13 10 8 8 8 8 10 11 11 12 12 13 11 10 10 9 9 9 9 10 10 8 8 9 9 10 10 10 10 10 10 11 11 10 10 10 10 10 9 9 8 7 6 4 4 4
11 14 17 17 16 15 15 14 14 15 15 14 13 14 13 12 11 11 13 14 15 17 16 14 15 15 16 15 14 14 13 17 20 18 16 14 12 14 16 15 13 9 7 7 8 10 13 13 12 12 15 14 11 11 10 9 10 10 10 10 9 9 10 11 11 11 11 11 11 11 11 10 10 10 10 10 9 9 8 7 6 4 3 2 1
13 15 16 16 15 15 15 15 14 14 14 14 14 14 14 14 14 14 14 14 15 16 15 14 13 14 14 14 14 14 13 15 19 19 18 16 14 15 16 16 15 12 9 7 7 10 13 13 12 11 14 17 14 12 11 11 10 11 11 10 10 10 11 11 12 12 12 12 11 11 10 10 10 10 10 9 9 8 7 6 5 4 3 2 2
14 15 15 15 14 14 15 15 14 14 15 16 16 14 13 14 16 17 15 14 14 14 14 12 12 12 14 15 15 14 13 13 16 18 19 18 16 15 16 16 15 14 13 9 6 8 12 14 14 12 14 17 17 14 12 12 11 11 12 11 11 11 12 12 13 13 13 13 12 12 11 10 10 10 10 9 9 8 7 7 6 5 4 5 5
13 14 14 13 14 14 13 13 14 13 15 16 15 13 12 13 16 16 13 13 13 13 12 11 11 11 12 13 13 13 13 13 16 17 18 18 17 16 16 16 15 15 14 11 7 6 10 13 14 15 17 17 17 16 14 13 12 12 12 12 12 13 13 13 14 14 14 14 13 13 12 12 11 11 10 10 9 9 9 9 8 7 7 8 8
12 13 13 12 12 13 12 13 13 13 14 14 13 11 11 12 13 13 12 12 12 12 11 11 11 11 12 13 12 11 13 16 17 15 15 17 17 16 16 15 16 16 16 14 9 5 8 13 14 15 19 18 15 17 16 14 14 13 14 14 14 14 15 15 15 15 16 15 14 14 14 13 13 12 12 11 11 11 11 11 11 11 10 11 11
12 12 13 12 12 12 12 13 14 13 13 14 12 12 11 12 12 11 11 12 12 11 11 11 11 11 13 14 12 13 16 19 19 16 15 16 16 16 16 16 15 17 18 16 12 7 7 11 14 15 18 18 15 16 18 17 16 15 15 16 15 15 17 17 16 17 16 16 15 15 14 14 14 13 13 13 13 13 13 14 14 14 14 14 15
11 11 12 12 12 12 12 13 14 12 12 12 12 11 12 12 11 11 12 12 13 12 12 12 12 12 14 14 13 15 17 18 18 17 17 16 15 15 15 18 18 17 18 16 13 10 7 9 15 15 16 19 17 16 18 18 17 16 15 16 16 16 18 18 18 18 17 16 15 15 15 15 15 15 14 14 15 15 15 16 17 17 18 18 18
10 11 11 11 12 12 12 13 13 11 11 11 11 11 11 11 11 11 11 12 13 13 12 12 12 12 14 14 14 14 14 14 15 17 18 16 16 15 14 18 20 19 19 18 14 12 9 9 13 14 16 19 19 18 19 18 17 17 16 17 17 18 18 19 18 19 18 17 17 16 16 16 16 16 16 16 17 17 18 18 19 20 21 21 22
11 10 10 11 12 12 12 13 12 12 12 12 12 11 11 11 11 10 10 11 12 12 12 12 12 13 13 14 14 14 13 14 15 16 18 18 16 15 15 16 18 18 22 22 16 13 11 10 12 14 16 17 17 19 21 18 17 18 18 18 19 19 19 20 20 19 19 18 18 18 18 18 18 18 18 18 19 19 20 21 21 23 23 24 25
11 10 10 11 12 13 13 13 12 12 12 12 11 10 10 11 11 9 9 10 10 11 12 11 12 12 13 13 13 13 13 15 16 15 17 19 18 16 16 17 16 17 22 23 18 15 14 11 11 14 17 17 16 17 20 19 16 16 16 18 20 21 21 21 21 20 20 19 19 20 20 19 19 19 19 20 21 22 22 23 24 25 25 26 27
11 10 11 12 13 13 14 15 14 13 12 12 11 10 9 10 10 10 9 9 9 10 11 11 11 11 12 13 13 12 13 14 15 16 16 19 21 19 18 18 16 16 19 21 18 16 14 12 10 11 13 16 15 13 17 19 17 14 14 14 16 19 21 22 22 20 20 20 20 20 20 20 20 21 21 21 22 23 23 24 25 26 27 28 30
9 10 11 13 14 14 14 16 15 12 12 12 11 10 10 9 9 10 10 10 10 10 10 10 10 10 13 16 14 11 13 14 15 17 17 18 20 19 18 19 17 16 17 18 17 14 11 10 11 10 10 12 13 11 12 15 15 15 16 16 14 14 17 20 21 21 20 20 20 19 19 20 20 21 22 22 23 24 25 26 28 28 29 29 28
9 9 9 12 16 15 14 14 13 11 12 13 11 10 10 9 9 9 9 10 9 10 10 10 10 11 13 16 14 11 12 14 17 19 19 18 18 16 17 19 19 17 14 13 15 16 14 11 11 10 9 10 12 13 14 16 17 16 18 21 18 12 10 12 15 19 20 19 18 18 18 20 21 21 23 24 25 25 24 24 24 22 21 20 20
9 9 8 11 15 16 16 16 15 14 14 13 11 10 10 9 9 8 8 8 9 9 9 10 10 11 12 13 13 13 13 14 17 18 17 17 18 17 17 19 19 17 13 11 15 19 18 15 12 11 11 11 13 16 18 20 21 17 16 21 18 11 9 9 10 15 19 17 15 15 14 16 18 18 19 19 18 17 15 14 14 14 14 14 15
11 11 10 11 14 16 17 16 16 17 15 12 10 10 10 10 9 8 7 8 9 8 9 10 10 11 11 11 11 12 13 14 15 16 15 16 18 18 18 18 19 19 16 15 17 19 18 15 13 14 14 12 14 18 18 18 20 19 17 18 15 10 9 9 8 9 11 11 10 10 10 11 13 12 11 10 9 9 9 10 11 12 13 14 15
10 11 11 11 14 15 15 14 15 17 15 12 11 10 10 10 10 10 9 8 9 9 9 9 10 10 10 11 10 10 11 13 13 14 16 16 17 18 18 18 19 20 19 19 19 19 19 16 12 14 16 14 14 18 19 18 19 19 17 16 14 12 10 10 8 5 5 7 8 7 7 8 9 9 7 6 7 10 12 12 13 14 14 16 16
6 7 8 10 12 13 13 13 14 15 14 13 12 11 11 12 11 11 11 11 10 10 10 10 10 10 10 10 10 11 12 13 13 13 15 15 16 17 18 18 18 19 20 21 21 20 22 21 15 14 17 15 13 17 22 22 20 19 17 15 15 13 10 8 5 4 4 7 6 6 6 4 4 6 6 4 7 12 14 14 15 16 16 17 17
5 4 3 5 7 9 10 11 12 13 14 14 13 12 12 13 13 13 14 14 13 11 11 11 11 12 11 11 12 13 13 13 13 13 14 16 16 17 17 16 16 17 17 19 19 19 20 22 20 18 19 18 14 14 18 20 18 15 14 13 13 11 8 5 4 4 4 6 4 4 5 2 2 6 5 5 7 11 14 15 16 16 16 16 14
12 10 8 6 4 4 5 6 9 12 13 14 14 14 15 15 15 15 16 17 16 14 14 14 14 14 14 13 14 15 14 14 15 15 16 17 16 15 14 12 11 11 10 11 15 17 16 17 17 17 17 18 17 14 14 16 16 12 10 10 10 8 8 6 5 5 4 3 3 3 4 3 4 6 6 6 9 12 13 15 16 16 15 13 11
15 13 11 10 8 5 3 2 4 8 12 13 14 15 16 16 16 17 18 18 18 17 17 17 17 16 15 15 15 16 17 17 17 16 16 16 16 15 13 12 10 8 6 4 5 9 10 12 13 13 11 12 12 11 11 12 12 10 8 8 8 8 8 7 6 7 4 3 3 2 3 4 4 5 7 8 11 14 14 14 15 15 13 10 12
17 16 14 13 12 10 7 4 2 3 7 10 12 14 15 17 18 18 18 17 17 18 18 18 18 18 17 17 16 17 18 18 17 16 16 16 17 18 19 20 20 20 19 17 13 11 12 13 13 12 12 13 13 13 12 11 11 11 9 8 8 7 5 4 4 5 4 3 3 1 2 4 4 6 8 9 11 13 13 11 10 11 10 12 17
19 18 16 14 13 13 12 10 7 3 2 5 9 13 14 17 19 18 18 18 18 17 17 17 18 19 19 18 18 18 19 18 18 18 17 17 20 23 24 25 25 25 25 24 22 20 19 18 17 16 15 15 14 13 12 10 9 9 7 5 6 5 3 2 2 4 5 3 2 1 2 4 5 6 7 9 9 10 8 6 6 9 11 15 17
23 21 19 18 17 16 15 14 12 9 6 1 6 11 14 16 18 19 19 20 19 18 17 17 17 17 17 17 19 20 20 20 20 20 19 19 21 22 22 23 25 25 25 24 24 23 21 19 16 13 13 13 12 10 10 9 7 6 5 5 5 6 5 4 3 2 3 3 2 2 2 3 4 4 5 7 7 5 4 4 7 11 12 13 13
Wind_Direction
194 192 193 199 204 197 191 193 192 189 183 183 183 181 179 175 170 165 158 156 158 159 162 164 163 158 151 145 144 143 139 135 134 131 128 129 129 139 135 118 105 99 103 104 98 107 115 115 114 111 114 118 121 118 114 112 108 107 111 113 112 109 107 102 98 97 96 96 96 94 91 86 81 79 80 80 80 77 76 75 73 70 69 68 66
198 200 201 205 210 204 195 198 202 199 190 188 186 182 183 181 177 171 162 159 158 159 163 166 167 164 157 151 147 144 142 140 141 138 134 134 131 132 126 119 117 116 126 121 95 93 100 108 114 117 120 119 121 116 109 110 111 110 111 116 117 114 112 107 103 100 98 97 96 95 95 92 87 84 82 81 81 79 78 77 74 72 70 69 67
204 205 206 209 212 210 204 200 204 205 198 196 192 184 185 186 183 178 169 163 160 161 165 167 168 168 163 156 148 146 149 148 146 144 142 141 140 140 134 132 140 144 150 146 120 109 104 109 115 121 124 117 116 113 111 112 109 111 116 118 116 113 112 109 108 106 102 99 98 98 97 95 93 92 90 86 84 80 78 78 76 75 73 71 70
214 213 213 214 212 216 215 207 204 206 204 201 197 187 185 187 186 184 178 169 163 163 167 170 170 170 166 158 153 154 156 155 153 150 150 150 148 149 146 145 153 160 164 158 145 135 121 124 126 122 123 120 120 122 120 114 106 107 116 120 120 117 112 112 113 109 105 101 98 97 96 96 94 94 95 91 86 82 80 78 76 75 74 73 72
220 221 222 223 220 222 221 215 208 209 211 205 201 195 187 187 187 185 180 173 165 162 167 173 175 174 171 164 160 162 162 161 160 158 156 154 153 153 153 154 158 163 169 169 163 144 110 139 146 142 137 127 129 138 134 123 112 107 107 114 121 118 110 109 111 109 108 106 102 99 97 96 93 90 92 90 87 86 84 81 79 78 74 74 75
223 223 226 227 226 225 224 221 214 213 217 210 203 199 191 188 189 187 181 174 167 165 171 177 180 181 177 172 171 170 169 168 166 162 159 157 157 156 156 159 160 157 164 178 188 204 314 18 146 156 158 147 146 152 145 129 115 110 108 112 118 117 115 111 110 109 107 106 103 101 98 94 90 86 85 85 84 83 84 84 83 82 78 78 80
230 229 229 229 227 226 226 223 219 218 219 213 205 201 196 192 192 188 179 174 170 168 173 178 181 183 181 178 178 173 173 179 174 163 162 160 159 159 162 166 164 156 157 172 188 232 279 29 114 141 161 164 164 164 156 139 127 125 117 114 118 118 121 119 113 111 107 103 99 96 93 90 87 83 80 81 83 83 84 81 79 85 85 86 87
237 236 235 234 229 227 227 221 217 217 215 210 207 204 200 197 196 195 187 176 175 175 176 178 179 180 182 182 181 180 183 187 180 169 165 164 165 168 168 167 166 163 167 177 193 240 268 101 104 115 120 151 169 174 173 162 155 147 128 120 122 120 120 119 115 112 106 99 95 91 89 89 87 86 85 85 85 83 80 77 84 93 92 88 86
237 237 238 240 233 229 229 220 212 209 207 207 209 209 205 202 200 202 200 187 179 181 180 177 174 177 180 181 182 187 191 188 184 181 172 166 170 174 174 173 172 171 180 195 212 230 234 186 133 126 123 123 156 177 183 181 178 165 146 131 129 128 125 126 122 115 106 98 96 94 92 92 90 89 90 90 84 77 76 85 95 99 92 82 77
236 235 237 242 238 236 233 222 213 207 204 205 211 214 210 208 206 203 202 195 186 187 185 178 173 176 179 181 186 192 198 194 189 189 178 170 173 175 177 179 179 178 188 202 212 220 230 215 194 156 150 132 137 164 179 188 188 175 168 153 144 142 135 135 130 118 111 108 103 98 98 98 93 92 92 89 83 81 87 96 100 98 86 74 70
239 238 237 241 239 239 235 222 217 212 206 205 209 216 214 211 210 202 196 196 198 195 189 180 171 171 174 179 189 197 203 200 192 191 186 180 178 177 179 179 183 186 188 200 206 217 220 203 196 192 196 183 146 141 151 180 186 182 183 175 164 163 151 143 133 120 119 117 106 97 104 107 103 104 102 92 87 89 94 97 96 87 77 72 68
245 244 240 242 240 238 237 225 218 217 212 208 207 213 216 212 204 197 192 191 196 195 189 178 164 160 160 172 187 199 207 206 196 191 189 189 185 182 184 182 187 192 188 191 187 184 184 172 181 176 185 192 157 129 134 158 174 187 197 189 182 179 165 155 144 132 129 121 108 101 111 119 118 117 111 103 96 92 90 89 87 82 76 70 63
248 247 242 243 241 237 236 228 220 220 219 216 212 210 214 214 202 193 192 186 183 187 185 169 152 152 152 163 180 191 206 208 201 194 190 194 194 190 191 188 190 195 190 172 162 154 135 118 139 157 164 162 137 122 132 144 157 175 197 199 195 191 174 165 157 146 139 127 111 104 119 134 134 128 120 113 103 94 91 89 87 83 75 64 55
246 245 246 245 242 234 232 231 224 220 218 215 213 209 211 214 202 191 189 189 189 185 177 166 160 165 159 149 150 154 192 204 198 195 195 199 203 200 197 197 196 195 183 167 164 153 131 122 133 141 143 136 123 117 120 121 135 149 165 191 196 195 186 171 159 156 146 126 114 110 115 127 130 130 131 125 114 105 101 95 88 82 70 55 46
249 247 254 252 245 236 233 233 226 219 217 213 210 205 204 206 204 197 186 183 189 193 188 180 172 169 164 162 157 140 173 203 194 193 198 202 208 206 202 200 196 189 178 176 181 164 135 133 139 135 128 122 116 112 110 107 117 126 130 142 158 176 181 169 160 161 145 125 124 119 112 113 120 124 129 131 125 116 107 97 88 78 60 45 40
253 246 256 255 243 240 239 235 228 222 220 216 208 202 201 203 208 206 193 179 177 192 200 195 176 165 163 175 179 174 191 184 173 187 200 205 211 210 206 202 194 186 182 182 186 169 142 141 143 133 123 118 114 111 108 103 102 102 104 117 130 151 163 161 156 151 138 132 133 124 111 109 118 127 135 137 134 127 115 106 94 73 52 45 46
256 247 256 253 238 240 244 239 233 226 221 216 206 201 204 203 207 208 201 194 184 187 198 197 188 179 174 164 164 197 204 161 152 176 198 204 211 209 206 203 196 188 186 187 184 161 142 150 146 131 124 120 116 113 110 103 96 91 90 105 118 134 145 146 144 138 134 132 124 111 108 111 113 127 141 145 141 133 123 115 102 76 66 60 58
263 260 257 251 235 232 239 239 235 226 219 214 203 200 203 200 203 203 197 198 193 188 194 197 198 196 193 190 186 201 170 159 158 163 182 194 203 204 203 203 199 192 189 188 183 163 150 157 150 135 131 128 123 117 111 107 104 103 103 107 114 121 126 129 130 130 129 123 114 107 104 110 111 117 133 143 144 140 133 124 110 92 81 72 67
262 262 248 248 242 231 229 230 226 219 213 206 200 204 208 204 206 208 204 205 203 196 194 194 198 203 203 204 206 200 171 166 173 162 157 178 188 195 202 201 198 195 195 191 182 173 162 163 159 150 144 139 133 124 115 111 110 113 117 117 119 121 123 128 132 130 125 117 113 110 106 112 118 123 132 143 149 150 148 138 111 95 85 78 79
257 251 235 241 246 235 220 220 219 213 208 205 207 214 216 207 207 218 220 218 216 209 200 195 196 201 202 203 205 197 182 180 186 178 171 173 171 187 199 197 197 197 198 196 189 182 173 165 166 163 155 147 141 132 126 123 117 119 129 130 131 137 141 145 143 132 124 122 119 116 117 123 128 134 138 142 148 151 145 132 107 95 93 90 90
246 239 225 228 239 235 219 216 213 207 206 210 217 218 216 209 202 212 219 217 218 215 205 202 202 201 201 200 199 189 185 188 192 184 175 173 174 185 184 180 193 197 196 195 190 187 181 171 170 171 164 158 155 147 141 139 135 138 147 148 150 160 162 153 142 135 130 129 128 126 129 135 134 133 136 137 140 141 132 121 111 105 103 99 97
238 235 228 218 229 234 223 216 211 206 207 214 223 221 217 215 210 214 218 217 216 211 205 209 209 206 203 200 195 185 182 187 191 186 175 176 183 186 182 178 185 187 189 191 188 188 187 177 172 175 172 169 166 160 157 155 155 158 156 149 150 160 164 154 142 138 135 132 134 136 137 138 136 133 131 133 133 131 125 120 116 112 107 104 100
239 236 230 216 217 219 211 213 215 213 211 214 223 224 218 217 217 220 218 215 217 212 210 216 215 212 209 203 200 194 190 191 189 185 183 183 180 180 184 185 183 178 180 186 186 186 188 182 178 181 180 179 177 172 172 173 175 174 161 145 143 155 160 156 148 141 140 142 142 142 141 138 138 135 131 132 131 129 126 123 120 116 110 105 99
236 234 235 223 214 209 202 207 218 221 223 221 223 223 219 216 216 219 216 216 223 220 215 218 217 217 216 210 208 207 204 201 190 188 193 189 181 177 178 182 180 171 171 179 183 183 186 186 185 188 188 187 189 188 183 181 187 184 169 158 153 159 164 161 156 154 150 150 148 145 144 142 139 137 134 135 134 130 128 128 126 120 112 105 99
227 232 239 229 216 207 198 203 214 221 227 228 228 226 220 217 216 218 216 216 222 220 216 217 218 220 219 215 215 215 215 213 203 199 200 192 189 180 171 177 176 163 165 178 182 182 189 192 191 193 195 194 196 199 193 184 189 187 175 171 170 168 172 170 167 166 158 154 154 151 149 149 146 143 143 140 137 135 135 134 128 119 111 105 100
227 234 237 226 212 201 196 205 212 212 223 229 232 233 228 222 219 220 219 218 220 221 221 221 223 223 217 212 216 218 220 222 217 209 202 197 196 179 163 173 178 166 167 178 183 187 191 194 196 195 197 199 200 201 199 197 196 189 181 178 183 181 180 180 177 171 165 160 160 158 157 156 155 153 149 144 141 140 138 132 124 117 112 107 103
226 233 234 222 208 198 198 209 210 213 228 231 225 227 230 228 225 223 224 225 227 228 227 224 226 226 220 217 220 219 221 224 221 216 210 206 199 181 166 166 175 172 173 178 190 201 193 189 196 200 202 205 206 203 201 206 205 192 186 187 192 193 189 186 183 176 171 168 166 165 163 161 160 159 152 146 144 142 137 132 126 121 117 110 101
230 233 233 225 212 201 202 209 209 218 233 230 218 221 227 226 224 223 224 226 229 231 230 226 224 223 223 223 222 221 223 225 222 219 216 210 201 191 181 174 172 173 181 184 196 205 197 190 195 201 207 209 207 206 202 206 209 200 193 195 199 198 193 190 188 183 176 173 171 169 166 165 164 160 154 150 149 147 143 139 135 131 127 116 105
236 234 233 230 221 206 202 207 211 219 230 229 222 226 232 231 228 226 225 226 230 232 231 228 222 220 221 219 219 223 224 224 224 223 222 216 206 201 197 192 186 179 180 190 199 200 196 195 195 199 208 212 211 208 205 205 209 206 203 203 204 203 197 191 189 186 179 176 175 173 172 171 169 164 161 158 157 158 155 152 150 153 157 148 130
233 231 229 228 223 207 203 209 211 215 225 228 228 231 236 239 239 236 231 228 229 230 230 228 224 221 221 220 222 225 224 224 227 226 225 220 211 207 208 206 203 197 188 188 199 197 191 192 195 196 205 211 213 210 208 210 208 208 211 211 209 205 199 194 192 187 183 180 179 180 180 180 178 173 172 171 172 176 177 176 179 186 204 232 256
229 224 219 219 215 204 202 208 211 216 224 229 234 237 233 230 233 234 232 229 228 227 227 225 222 220 223 226 227 224 222 225 227 228 228 224 215 210 212 211 211 209 203 202 204 195 191 194 196 196 202 209 212 212 211 213 211 209 213 215 214 209 202 199 196 191 188 187 186 188 191 192 192 189 187 189 192 199 205 209 213 222 239 255 269
228 222 214 210 205 198 196 202 207 211 218 225 232 234 224 216 223 228 226 223 224 224 222 219 216 215 220 226 227 224 223 224 225 227 229 226 218 212 213 214 214 213 211 216 218 188 189 194 192 197 206 210 213 215 215 216 216 212 214 217 216 210 206 206 204 198 194 193 193 195 199 202 205 204 203 205 209 218 227 234 240 245 254 263 271
228 223 215 206 201 196 195 201 205 206 214 223 223 220 217 214 217 223 222 217 217 219 216 213 211 211 217 222 221 221 223 223 222 222 222 222 217 213 215 214 214 214 213 217 221 191 183 193 192 200 210 212 214 216 217 219 220 216 216 219 218 213 211 211 210 207 203 199 199 201 204 209 213 215 216 218 223 232 240 247 254 258 263 268 272
230 225 216 208 200 193 195 204 207 205 214 227 223 211 210 212 213 219 221 217 215 214 213 213 211 211 219 221 216 219 224 222 219 218 217 217 213 212 214 213 213 216 214 214 217 203 182 190 195 202 211 212 212 215 217 219 221 221 221 222 221 218 216 214 214 215 211 207 208 209 211 215 219 222 226 230 234 241 248 255 260 265 269 272 275
233 225 218 211 201 193 197 208 209 202 206 222 227 216 208 209 214 219 219 217 216 215 214 214 212 212 217 216 212 219 223 218 215 216 217 214 210 209 210 211 215 219 215 212 213 209 188 184 194 201 209 212 212 215 218 219 220 222 226 228 228 226 224 221 219 220 218 215 215 218 220 223 227 231 234 239 244 248 254 260 265 270 273 276 279
236 228 221 216 208 198 199 207 207 199 198 203 211 213 209 209 213 216 217 215 216 218 218 218 215 212 214 213 210 213 215 210 209 213 214 212 210 209 208 210 213 216 216 214 214 210 197 187 192 196 207 212 212 216 219 220 221 222 224 229 231 231 232 230 227 227 225 222 222 225 228 231 234 238 242 246 251 256 260 265 269 273 276 279 281
242 235 227 221 215 206 203 204 201 199 199 197 199 204 207 208 209 212 216 216 217 220 221 219 215 211 213 213 209 207 207 208 208 210 213 214 211 209 211 211 210 214 220 220 216 208 205 199 192 195 205 209 209 216 220 219 219 222 224 227 230 232 234 235 234 234 232 230 230 231 233 237 240 244 248 253 257 261 264 268 271 274 277 279 282
247 241 233 227 220 213 208 203 198 197 200 200 201 202 203 207 210 211 216 219 221 223 223 219 215 214 214 214 213 209 208 211 211 209 210 213 213 211 212 213 209 212 220 221 215 210 213 210 195 195 204 205 205 214 220 217 212 214 218 224 230 232 234 237 238 238 238 237 237 238 240 243 247 250 253 257 261 264 267 270 272 275 278 281 283
251 246 240 232 226 221 214 206 198 193 194 197 200 201 201 207 212 212 216 222 225 225 225 221 217 216 216 217 218 215 214 214 212 208 207 210 215 215 213 214 212 210 216 218 212 208 211 210 203 197 200 204 202 207 217 218 214 213 213 216 226 231 234 238 239 239 242 242 243 246 247 249 253 256 259 262 263 265 268 271 274 277 280 282 285
260 255 247 237 233 229 220 211 202 194 192 194 196 200 202 205 209 213 219 224 226 227 225 224 222 220 222 225 223 218 219 216 210 211 210 211 215 216 214 215 215 212 215 213 206 207 213 211 208 199 191 199 200 199 208 210 208 215 218 216 221 226 230 237 241 242 245 247 249 252 253 255 258 261 265 267 267 269 271 274 277 280 283 286 288
273 264 253 244 239 231 220 213 205 198 199 201 201 203 204 207 209 212 218 223 225 226 225 224 222 218 222 227 226 222 222 219 216 218 218 214 216 218 217 218 216 215 214 202 200 216 228 223 213 201 192 198 198 195 203 209 210 214 219 222 224 223 221 232 242 245 247 250 252 254 257 261 264 266 269 271 273 276 278 280 282 285 287 289 290
290 277 262 252 244 231 220 217 213 209 208 209 209 208 207 210 210 206 211 217 218 221 222 220 220 216 215 222 226 227 229 226 222 224 225 223 223 224 226 226 223 218 207 189 198 214 220 218 211 202 201 204 204 205 211 218 218 213 216 222 222 218 221 229 238 248 252 253 253 255 258 262 267 270 269 271 278 284 285 287 290 291 291 291 293
302 290 278 262 246 231 224 223 221 218 215 212 210 208 208 212 214 208 209 216 216 217 216 215 215 214 210 210 215 221 225 225 225 227 229 229 228 228 231 233 232 228 217 204 206 213 217 217 210 207 210 212 213 215 216 218 219 216 214 219 217 209 218 226 227 240 250 251 252 253 252 256 263 266 266 269 279 286 286 289 293 295 296 298 301
307 296 284 266 249 236 227 223 223 221 219 216 211 209 210 214 219 219 214 212 213 214 212 210 209 208 205 203 203 206 212 217 223 226 227 227 227 228 230 231 232 233 229 220 215 216 222 224 213 208 216 219 221 223 220 215 216 216 213 215 216 209 212 224 224 214 223 236 242 248 250 255 262 264 267 274 284 292 295 299 303 306 307 308 309
315 296 278 261 251 243 230 221 222 223 222 218 213 212 214 217 225 229 223 215 211 209 208 206 203 201 198 197 198 202 206 208 213 219 221 220 221 223 227 229 230 231 231 227 222 219 222 228 228 224 224 224 224 229 228 221 215 211 209 211 214 212 211 221 211 176 211 234 244 262 259 246 261 278 285 296 303 305 307 310 313 314 314 313 312
6 357 322 277 258 250 238 227 224 224 223 221 218 218 221 224 229 234 233 228 219 209 206 205 204 205 203 198 197 199 199 200 204 209 211 212 212 213 216 220 222 228 231 231 230 226 223 226 230 231 232 231 230 232 231 224 215 209 207 206 208 205 198 192 171 158 203 220 222 265 263 239 308 309 307 310 313 313 313 313 314 316 314 310 310
31 32 28 13 338 294 265 244 234 231 230 227 223 224 226 229 231 232 234 233 225 216 215 215 214 215 212 206 203 201 201 202 204 205 205 202 195 191 191 191 198 215 228 234 237 236 230 230 231 230 229 228 227 225 218 210 206 207 208 204 199 187 168 158 144 126 139 181 196 243 266 282 319 316 307 312 318 316 314 314 315 311 304 299 305
33 34 33 30 22 12 346 283 252 244 240 234 228 227 227 226 226 228 230 228 222 218 217 215 214 212 209 205 205 206 205 204 202 202 201 192 178 168 159 145 138 138 126 134 215 223 214 214 217 212 201 195 193 185 176 176 179 180 177 167 152 145 146 145 134 126 136 218 232 229 263 280 311 322 313 315 318 313 312 314 311 304 296 294 309
38 38 38 38 37 39 43 39 5 280 255 237 225 223 222 219 219 221 218 213 210 210 208 205 203 202 200 200 202 202 202 199 193 191 192 182 165 153 143 131 124 117 111 109 114 122 132 139 142 138 134 136 137 134 133 138 142 138 134 128 128 139 151 148 141 144 159 224 243 231 278 290 323 329 314 311 313 312 313 312 304 296 289 297 311
48 46 45 44 42 42 44 44 45 38 307 238 213 207 208 209 211 211 206 199 196 196 194 192 191 193 195 195 195 196 197 193 185 181 183 174 158 149 142 133 125 119 118 119 118 117 118 117 113 112 114 119 120 119 121 129 138 140 139 136 132 135 141 141 152 155 150 165 215 310 324 308 318 321 313 313 314 311 311 307 300 301 303 311 320
58 56 53 52 49 44 40 40 45 51 43 2 204 195 195 198 199 200 196 189 184 181 178 178 178 181 186 187 188 192 190 182 176 173 174 171 163 157 151 143 132 126 126 128 126 125 126 124 122 124 124 122 119 117 117 120 125 130 140 146 129 114 121 141 163 185 170 167 208 294 316 302 309 326 330 325 318 309 303 304 309 314 316 322 330